TimeEST,TemperatureF,Dew PointF,Humidity,Sea Level PressureIn,VisibilityMPH,Wind Direction,Wind SpeedMPH,Gust SpeedMPH,PrecipitationIn,Events,Conditions,WindDirDegrees,DateUTC
12:54 AM,21.0,16.0,81,30.03,10.0,West,17.3,27.6,N/A,,Overcast,270,2012-12-23 05:54:00
1:54 AM,21.0,16.0,81,30.03,10.0,WSW,12.7,-,N/A,,Overcast,250,2012-12-23 06:54:00
2:54 AM,21.9,17.1,82,30.04,10.0,West,12.7,20.7,N/A,,Overcast,270,2012-12-23 07:54:00
3:54 AM,21.0,17.1,85,30.02,10.0,SW,9.2,-,N/A,,Overcast,230,2012-12-23 08:54:00
4:35 AM,21.2,17.6,86,29.91,10.0,SW,6.9,-,N/A,,Mostly Cloudy,220,2012-12-23 09:35:00
4:54 AM,21.0,16.0,81,30.00,10.0,SW,6.9,-,N/A,,Mostly Cloudy,220,2012-12-23 09:54:00
5:03 AM,21.2,15.8,80,29.90,10.0,SW,6.9,-,N/A,,Scattered Clouds,230,2012-12-23 10:03:00
5:54 AM,19.9,14.0,78,29.99,10.0,WSW,6.9,-,N/A,,Clear,240,2012-12-23 10:54:00
6:54 AM,21.0,12.9,71,29.99,10.0,WSW,8.1,-,N/A,,Clear,250,2012-12-23 11:54:00
7:54 AM,21.9,14.0,72,29.97,10.0,WSW,11.5,-,N/A,,Clear,250,2012-12-23 12:54:00
8:54 AM,21.9,15.1,75,29.97,10.0,SW,8.1,-,N/A,,Clear,230,2012-12-23 13:54:00
9:54 AM,25.0,14.0,63,29.97,10.0,WSW,9.2,-,N/A,,Clear,240,2012-12-23 14:54:00
10:54 AM,30.0,14.0,51,29.94,10.0,SW,8.1,-,N/A,,Clear,220,2012-12-23 15:54:00
11:54 AM,32.0,16.0,52,29.91,10.0,WSW,13.8,-,N/A,,Clear,240,2012-12-23 16:54:00
12:54 PM,34.0,18.0,52,29.88,10.0,WSW,10.4,-,N/A,,Clear,250,2012-12-23 17:54:00
1:54 PM,35.1,19.0,52,29.88,10.0,West,13.8,19.6,N/A,,Clear,260,2012-12-23 18:54:00
2:54 PM,35.1,19.9,54,29.87,10.0,WSW,13.8,-,N/A,,Clear,250,2012-12-23 19:54:00
3:54 PM,34.0,19.9,56,29.91,10.0,WSW,10.4,17.3,N/A,,Clear,250,2012-12-23 20:54:00
4:54 PM,32.0,19.9,61,29.93,10.0,West,8.1,-,N/A,,Clear,260,2012-12-23 21:54:00
5:54 PM,30.9,19.9,64,29.95,10.0,WSW,5.8,-,N/A,,Clear,240,2012-12-23 22:54:00
6:54 PM,30.0,19.9,66,29.96,10.0,SW,8.1,-,N/A,,Clear,230,2012-12-23 23:54:00
7:54 PM,30.0,19.9,66,29.97,10.0,West,11.5,-,N/A,,Clear,260,2012-12-24 00:54:00
8:54 PM,30.0,21.0,69,29.99,10.0,West,11.5,-,N/A,,Clear,270,2012-12-24 01:54:00
9:54 PM,28.9,21.0,72,29.99,10.0,West,13.8,-,N/A,,Clear,280,2012-12-24 02:54:00
10:54 PM,28.0,19.9,72,30.00,10.0,WNW,13.8,-,N/A,,Clear,300,2012-12-24 03:54:00
11:54 PM,25.0,19.0,78,29.99,10.0,NW,5.8,-,N/A,,Clear,310,2012-12-24 04:54:00